Tracking 25710 objects as of 7-Jul-2022
HD Live streaming from Space Station
objects crossing your sky now

FENGYUN 1C DEB

Track FENGYUN 1C DEB now!
10-day predictions


NORAD ID: 37438
Int'l Code: 1999-025EHG
Perigee: 841.0 km
Apogee: 885.1 km
Inclination: 98.9 °
Period: 102.1 minutes
Semi major axis: 7234 km
RCS: 0.0099 m2 (small)
Launch date: May 10, 1999
Source: People's Republic of China (PRC)
Launch site: Taiyaun Space Center, China (TSC)

Note: This is SATELLITE DEBRIS
aabbcc
Your satellite tracking list
Your tracking list is empty




NASA's NSSDC Master Catalog

Two Line Element Set (TLE):
1 37438U 99025EHG 22183.31156949  .00000404  00000-0  24803-3 0  9992
2 37438  98.8731 226.6518 0030538 195.6493 164.3736 14.11011533423491
Source of the keplerian elements: AFSPC